This is the latest recevied weather packets stored in our database for station/object KQ4NAL. If no packets are shown the sender has not sent any weather packets the latest 10 day(s).
| Time | Temp. | Humidity | Pressure | Rain* | Wind** | Luminosity | Snow |
|---|---|---|---|---|---|---|---|
| 1777757925 | 13.33° C | 41% | 1017.6 hPa | 0 mm | - | 438 W/m² | - |
| 1777757622 | 12.78° C | 41% | 1017.3 hPa | 0 mm | - | 516 W/m² | - |
| 1777757321 | 12.22° C | 42% | 1017.4 hPa | 0 mm | - | 530 W/m² | - |
| 1777757019 | 12.22° C | 41% | 1017.4 hPa | 0 mm | - | 223 W/m² | - |
| 1777756716 | 12.78° C | 41% | 1017.4 hPa | 0 mm | - | 157 W/m² | - |
| 1777756411 | 13.33° C | 43% | 1017.3 hPa | 0 mm | - | 144 W/m² | - |
| 1777756109 | 13.33° C | 38% | 1017.4 hPa | 0 mm | - | 560 W/m² | - |
| 1777755806 | 12.78° C | 41% | 1017.4 hPa | 0 mm | - | 554 W/m² | - |
| 1777755503 | 12.22° C | 43% | 1017.3 hPa | 0 mm | - | 481 W/m² | - |
| 1777755199 | 11.67° C | 43% | 1017.6 hPa | 0 mm | - | 335 W/m² | - |
| 1777754897 | 11.67° C | 43% | 1017.3 hPa | 0 mm | - | 161 W/m² | - |
| 1777754594 | 13.33° C | 39% | 1017.6 hPa | 0 mm | - | 150 W/m² | - |
| 1777754291 | 12.78° C | 42% | 1017.7 hPa | 0 mm | - | 661 W/m² | - |
| 1777753989 | 11.67° C | 44% | 1017.6 hPa | 0 mm | - | 675 W/m² | - |
| 1777753688 | 12.22° C | 44% | 1017.7 hPa | 0 mm | - | 183 W/m² | - |
| 1777753387 | 11.67° C | 44% | 1017.8 hPa | 0 mm | - | 540 W/m² | - |
| 1777753085 | 11.67° C | 44% | 1017.8 hPa | 0 mm | - | 161 W/m² | - |
| 1777752780 | 11.67° C | 43% | 1017.8 hPa | 0 mm | - | 185 W/m² | - |
| 1777752476 | 12.22° C | 45% | 1017.8 hPa | 0 mm | - | 209 W/m² | - |
| 1777752172 | 12.22° C | 43% | 1018 hPa | 0 mm | - | 253 W/m² | - |
| 1777751871 | 11.67° C | 43% | 1018 hPa | 0 mm | - | 197 W/m² | - |
| 1777751567 | 12.22° C | 41% | 1018 hPa | 0 mm | - | 185 W/m² | - |
| 1777751264 | 12.78° C | 47% | 1018.1 hPa | 0 mm | - | 229 W/m² | - |
| 1777750961 | 12.22° C | 48% | 1018 hPa | 0 mm | - | 783 W/m² | - |
| 1777750656 | 12.22° C | 45% | 1017.9 hPa | 0 mm | - | 347 W/m² | - |
* Rain latest hour (hover to see other rain measurements)
** Current wind speed in m/s (hover to see current wind gust speed)